Overview Statistics Trail Chart Weather Telemetry Raw packets
 

This is the latest recevied weather packets stored in our database for station/object KB9HUO. If no packets are shown the sender has not sent any weather packets the latest 10 day(s).

<< 98 99 100 101 102 103 104 >>
Time Temp. Humidity Pressure Rain* Wind** Luminosity Snow
1787922270 20° C 99% 1020.9 hPa 0 mm - 41 W/m² -
1787921967 20° C 99% 1020.8 hPa 0 mm - 43 W/m² -
1787921662 19.44° C 99% 1020.9 hPa 0 mm - 37 W/m² -
1787921368 19.44° C 99% 1020.8 hPa 0 mm - 33 W/m² -
1787921057 19.44° C 99% 1020.8 hPa 0 mm - 28 W/m² -
1787920752 19.44° C 99% 1020.8 hPa 0 mm - 26 W/m² -
1787920447 19.44° C 99% 1020.8 hPa 0 mm - 31 W/m² -
1787920144 18.89° C 99% 1020.8 hPa 0 mm - 37 W/m² -
1787919844 18.89° C 99% 1020.8 hPa 0 mm - 38 W/m² -
1787919543 18.89° C 99% 1020.7 hPa 0 mm - 35 W/m² -
1787919238 18.33° C 99% 1020.7 hPa 0 mm - 41 W/m² -
1787918933 17.78° C 99% 1020.8 hPa 0 mm - 35 W/m² -
1787918628 17.78° C 99% 1020.6 hPa 0 mm - 31 W/m² -
1787918326 17.78° C 99% 1020.7 hPa 0 mm - 26 W/m² -
1787918021 17.78° C 99% 1020.5 hPa 0 mm - 23 W/m² -
1787917716 17.22° C 99% 1020.6 hPa 0 mm - 18 W/m² -
1787917412 17.22° C 99% 1020.6 hPa 0 mm - 15 W/m² -
1787917107 17.22° C 99% 1020.4 hPa 0 mm - 13 W/m² -
1787916802 17.22° C 99% 1020.4 hPa 0 mm - 10 W/m² -
1787916501 17.22° C 99% 1020.2 hPa 0 mm - 6 W/m² -
1787916197 17.22° C 99% 1020.3 hPa 0 mm - 4 W/m² -
1787915892 17.22° C 99% 1020.1 hPa 0 mm - 3 W/m² -
1787915588 17.22° C 99% 1020.3 hPa 0 mm - 2 W/m² -
1787915287 17.22° C 99% 1019.8 hPa 0 mm - 1 W/m² -
1787914982 17.22° C 99% 1020.1 hPa 0 mm - 0 W/m² -

* Rain latest hour (hover to see other rain measurements)
** Current wind speed in m/s (hover to see current wind gust speed)